Regional Weather Roundup
Issued by NWS

Home | Current Version | Previous Version | Graphics & Text | Print | Product List | Glossary On
Versions: 1 2 3 4 5 6 7 8 9 10 11 12 13 14 15 16 17 18 19 20 21 22 23 24 25 26 27 28 29 30 31 32 33 34 35 36 37 38 39 40 41 42 43 44 45 46 47 48 49 50
000
ASUS43 KBIS 190759
RWRND

NORTH DAKOTA REGIONAL WEATHER ROUNDUP
NATIONAL WEATHER SERVICE BISMARCK ND
300 AM CDT FRI SEP 19 2014

NOTE: "FAIR" INDICATES FEW OR NO CLOUDS BELOW 12,000 FEET WITH NO
SIGNIFICANT WEATHER AND/OR OBSTRUCTIONS TO VISIBILITY.


NDZ001>003-009>011-017-190900-
NORTHWEST NORTH DAKOTA

CITY           SKY/WX    TMP DP  RH WIND       PRES   REMARKS
WILLISTON      CLOUDY    61  54  77 SW8       29.58F
MINOT          CLOUDY    68  58  70 SW10      29.54F
$$

NDZ018>021-031>035-040>046-190900-
SOUTHWEST NORTH DAKOTA

CITY           SKY/WX    TMP DP  RH WIND       PRES   REMARKS
BISMARCK       CLOUDY    66  60  81 S5        29.64F
DICKINSON      CLOUDY    64  53  67 S10       29.63F
GARRISON         N/A     66  63  90 SW7       29.58F
HETTINGER ARPT CLOUDY    64  54  69 CALM      29.67F
$$

NDZ004>008-012>016-024-026-027-054-190900-
NORTHEAST NORTH DAKOTA

CITY           SKY/WX    TMP DP  RH WIND       PRES   REMARKS
GRAND FORKS    CLOUDY    66  57  72 S21G28    29.62F
GRND FRKS AFB  CLOUDY    67  59  75 SW23G30   29.61F
DEVILS LAKE    CLOUDY    66  57  72 S15G24    29.57F
$$

NDZ022-023-025-028>030-036>039-047>053-190900-
SOUTHEAST NORTH DAKOTA

CITY           SKY/WX    TMP DP  RH WIND       PRES   REMARKS
FARGO          CLOUDY    65  55  70 S20G28    29.72F
$$



USA.gov is the U.S. government's official web portal to all federal, state and local government web resources and services.